• In India
  • List of Countries
  • For 7 days
  • Water Temperature
  • Satellite Maps
  • Weather Map
  • Weather Widgets
  • user-avatar
    Login

    Hourly Weather Serowe

    Today, 16 December, Sunday

    Time Temperature Precipitation Wind Pressure Humidity
    00:00 +26°C° 0 mm 3 mps 669 mmHg 40%
    01:00 +25°C° 0 mm 2 mps 669 mmHg 42%
    02:00 +25°C° 0 mm 2 mps 669 mmHg 40%
    03:00 +24°C° 0 mm 3 mps 669 mmHg 42%
    04:00 +24°C° 0 mm 3 mps 669 mmHg 44%
    05:00 +22°C° 0 mm 3 mps 669 mmHg 46%
    06:00 +25°C° 0 mm 4 mps 670 mmHg 42%
    07:00 +27°C° 0 mm 5 mps 670 mmHg 38%
    08:00 +29°C° 0 mm 6 mps 671 mmHg 34%
    09:00 +30°C° 0 mm 6 mps 671 mmHg 28%
    10:00 +33°C° 0 mm 6 mps 671 mmHg 23%
    11:00 +35°C° 0 mm 6 mps 671 mmHg 17%
    12:00 +36°C° 0 mm 6 mps 670 mmHg 15%
    13:00 +38°C° 0 mm 6 mps 670 mmHg 14%
    14:00 +38°C° 0 mm 6 mps 670 mmHg 13%
    15:00 +38°C° 0 mm 6 mps 669 mmHg 13%
    16:00 +36°C° 0 mm 6 mps 669 mmHg 14%
    17:00 +36°C° 0 mm 6 mps 668 mmHg 14%
    18:00 +34°C° 0 mm 5 mps 668 mmHg 17%
    19:00 +32°C° 0 mm 4 mps 668 mmHg 21%
    20:00 +29°C° 0 mm 4 mps 668 mmHg 24%
    21:00 +28°C° 0 mm 4 mps 668 mmHg 26%
    22:00 +28°C° 0 mm 4 mps 669 mmHg 29%
    23:00 +27°C° 0 mm 4 mps 669 mmHg 31%

    Tomorrow, 17 December, Monday

    Time Temperature Precipitation Wind Pressure Humidity
    00:00 +27°C° 0 mm 4 mps 669 mmHg 35%
    01:00 +26°C° 0 mm 4 mps 669 mmHg 40%
    02:00 +25°C° 0 mm 4 mps 668 mmHg 44%
    03:00 +25°C° 0 mm 4 mps 668 mmHg 46%
    04:00 +23°C° 0 mm 4 mps 668 mmHg 48%
    05:00 +23°C° 0 mm 4 mps 668 mmHg 51%
    06:00 +25°C° 0 mm 4 mps 668 mmHg 44%
    07:00 +27°C° 0 mm 5 mps 669 mmHg 38%
    08:00 +29°C° 0 mm 5 mps 670 mmHg 32%
    09:00 +32°C° 0 mm 5 mps 670 mmHg 28%
    10:00 +33°C° 0 mm 5 mps 670 mmHg 23%
    11:00 +35°C° 0 mm 5 mps 670 mmHg 19%
    12:00 +36°C° 0 mm 5 mps 670 mmHg 18%
    13:00 +37°C° 0 mm 5 mps 669 mmHg 16%
    14:00 +39°C° 0 mm 5 mps 669 mmHg 15%
    15:00 +39°C° 0 mm 5 mps 668 mmHg 16%
    16:00 +37°C° 0 mm 5 mps 667 mmHg 17%
    17:00 +37°C° 0 mm 5 mps 666 mmHg 17%
    18:00 +35°C° 0 mm 5 mps 666 mmHg 21%
    19:00 +33°C° 0 mm 4 mps 666 mmHg 24%
    20:00 +30°C° 0 mm 4 mps 666 mmHg 28%
    21:00 +30°C° 0 mm 3 mps 667 mmHg 30%
    22:00 +29°C° 0 mm 3 mps 667 mmHg 32%
    23:00 +28°C° 0 mm 3 mps 667 mmHg 35%

    Day after tomorrow, 18 December, Tuesday

    Time Temperature Precipitation Wind Pressure Humidity
    00:00 +27°C° 0 mm 3 mps 667 mmHg 37%
    01:00 +27°C° 0 mm 3 mps 667 mmHg 39%
    02:00 +26°C° 0 mm 3 mps 666 mmHg 41%
    03:00 +25°C° 0 mm 2 mps 666 mmHg 44%
    04:00 +25°C° 0 mm 2 mps 666 mmHg 46%
    05:00 +24°C° 0 mm 2 mps 666 mmHg 48%
    06:00 +26°C° 0 mm 3 mps 667 mmHg 44%
    07:00 +28°C° 0 mm 4 mps 668 mmHg 39%
    08:00 +29°C° 0 mm 5 mps 668 mmHg 34%
    09:00 +32°C° 0 mm 5 mps 668 mmHg 30%
    10:00 +34°C° 0 mm 4 mps 668 mmHg 27%
    11:00 +36°C° 0 mm 4 mps 668 mmHg 23%
    12:00 +37°C° 0 mm 4 mps 668 mmHg 21%
    13:00 +38°C° 0 mm 3 mps 667 mmHg 19%
    14:00 +38°C° 0 mm 3 mps 666 mmHg 17%
    15:00 +38°C° 0 mm 2 mps 666 mmHg 18%
    16:00 +37°C° 0 mm 2 mps 665 mmHg 18%
    17:00 +36°C° 0 mm 1 mps 665 mmHg 19%
    18:00 +35°C° 0 mm 2 mps 665 mmHg 21%
    19:00 +34°C° 0 mm 2 mps 665 mmHg 23%
    20:00 +32°C° 0 mm 2 mps 665 mmHg 24%
    21:00 +31°C° 0 mm 2 mps 665 mmHg 26%
    22:00 +30°C° 0 mm 2 mps 665 mmHg 27%
    23:00 +29°C° 0 mm 2 mps 665 mmHg 28%

    19 December, Wednesday

    Time Temperature Precipitation Wind Pressure Humidity
    00:00 +28°C° 0 mm 2 mps 664 mmHg 28%
    01:00 +28°C° 0 mm 2 mps 664 mmHg 28%
    02:00 +27°C° 0 mm 2 mps 664 mmHg 28%
    03:00 +27°C° 0 mm 2 mps 664 mmHg 29%
    04:00 +26°C° 0 mm 2 mps 664 mmHg 30%
    05:00 +26°C° 0 mm 2 mps 664 mmHg 31%
    06:00 +27°C° 0 mm 3 mps 665 mmHg 29%
    07:00 +29°C° 0 mm 3 mps 666 mmHg 27%
    08:00 +32°C° 0 mm 4 mps 667 mmHg 25%
    09:00 +34°C° 0 mm 4 mps 667 mmHg 23%
    10:00 +36°C° 0 mm 4 mps 667 mmHg 21%
    11:00 +38°C° 0 mm 3 mps 667 mmHg 18%
    12:00 +38°C° 0 mm 3 mps 666 mmHg 17%
    13:00 +39°C° 0 mm 2 mps 666 mmHg 16%
    14:00 +39°C° 0 mm 2 mps 665 mmHg 16%
    15:00 +39°C° 0 mm 1 mps 665 mmHg 16%
    16:00 +39°C° 0 mm 1 mps 664 mmHg 16%
    17:00 +36°C° 0 mm 0 mps 664 mmHg 16%
    18:00 +37°C° 0 mm 1 mps 664 mmHg 17%
    19:00 +35°C° 0 mm 1 mps 664 mmHg 19%
    20:00 +34°C° 0 mm 1 mps 664 mmHg 21%
    21:00 +34°C° 0 mm 2 mps 664 mmHg 23%
    22:00 +32°C° 0 mm 2 mps 665 mmHg 25%
    23:00 +31°C° 0 mm 2 mps 665 mmHg 27%

    20 December, Thursday

    Time Temperature Precipitation Wind Pressure Humidity
    00:00 +31°C° 0 mm 2 mps 664 mmHg 27%
    01:00 +30°C° 0 mm 2 mps 664 mmHg 28%
    02:00 +30°C° 0 mm 1 mps 663 mmHg 29%
    03:00 +29°C° 0.1 mm 2 mps 664 mmHg 31%
    04:00 +29°C° 0.1 mm 2 mps 664 mmHg 33%
    05:00 +28°C° 0.1 mm 2 mps 664 mmHg 35%
    06:00 +29°C° 0 mm 3 mps 665 mmHg 34%
    07:00 +30°C° 0 mm 3 mps 665 mmHg 34%
    08:00 +32°C° 0 mm 4 mps 666 mmHg 33%
    09:00 +33°C° 0 mm 5 mps 666 mmHg 30%
    10:00 +35°C° 0 mm 5 mps 667 mmHg 28%
    11:00 +36°C° 0 mm 6 mps 667 mmHg 26%
    12:00 +36°C° 0 mm 6 mps 666 mmHg 26%
    13:00 +36°C° 0 mm 6 mps 666 mmHg 27%
    14:00 +36°C° 0 mm 6 mps 665 mmHg 27%
    15:00 +36°C° 0 mm 5 mps 665 mmHg 26%
    16:00 +36°C° 0 mm 5 mps 665 mmHg 25%
    17:00 +36°C° 0 mm 4 mps 665 mmHg 24%
    18:00 +35°C° 0 mm 3 mps 665 mmHg 28%
    19:00 +32°C° 0 mm 2 mps 665 mmHg 33%
    20:00 +30°C° 0 mm 1 mps 665 mmHg 37%
    21:00 +29°C° 1 mm 2 mps 665 mmHg 44%
    22:00 +27°C° 1 mm 2 mps 666 mmHg 51%
    23:00 +26°C° 1 mm 3 mps 666 mmHg 58%

    21 December, Friday

    Time Temperature Precipitation Wind Pressure Humidity
    00:00 +26°C° 0.2 mm 5 mps 666 mmHg 64%
    01:00 +26°C° 0.2 mm 6 mps 666 mmHg 69%
    02:00 +24°C° 0.2 mm 8 mps 666 mmHg 75%
    03:00 +24°C° 0 mm 8 mps 666 mmHg 77%
    04:00 +23°C° 0 mm 7 mps 666 mmHg 79%
    05:00 +22°C° 0 mm 7 mps 666 mmHg 81%
    06:00 +23°C° 0 mm 7 mps 666 mmHg 78%
    07:00 +23°C° 0 mm 7 mps 667 mmHg 76%
    08:00 +23°C° 0 mm 7 mps 668 mmHg 73%
    09:00 +26°C° 0 mm 7 mps 668 mmHg 67%
    10:00 +27°C° 0 mm 7 mps 668 mmHg 61%
    11:00 +29°C° 0 mm 7 mps 668 mmHg 54%
    12:00 +30°C° 0 mm 7 mps 668 mmHg 50%
    13:00 +32°C° 0 mm 7 mps 667 mmHg 45%
    14:00 +34°C° 0 mm 6 mps 667 mmHg 41%
    15:00 +34°C° 0 mm 6 mps 666 mmHg 40%
    16:00 +33°C° 0 mm 6 mps 666 mmHg 40%
    17:00 +33°C° 0 mm 5 mps 666 mmHg 40%
    18:00 +32°C° 0 mm 5 mps 665 mmHg 44%
    19:00 +29°C° 0 mm 5 mps 665 mmHg 48%
    20:00 +28°C° 0 mm 4 mps 665 mmHg 53%
    21:00 +27°C° 0 mm 5 mps 665 mmHg 56%
    22:00 +26°C° 0 mm 5 mps 666 mmHg 59%
    23:00 +24°C° 0 mm 6 mps 666 mmHg 63%
    Show more